Aswan, Egypt

7:59 AM EET on August 21, 2017 (GMT +0200)
Aswan

Weather History for HESN - October, 2012

Change the Weather History Date:

Sunday, October 7, 2012

  Actual Average Record
Temperature  
Mean Temperature 84 °F -  
Max Temperature 95 °F 90 °F 110 °F (2014)
Min Temperature 72 °F 68 °F 62 °F (2013)
Cooling Degree Days 18    
Growing Degree Days 34 (Base 50)    
Moisture  
Dew Point 46 °F    
Average Humidity 27    
Maximum Humidity 38    
Minimum Humidity 11    
Precipitation  
Precipitation 0.00 in 0.00 in - ()
Sea Level Pressure  
Sea Level Pressure 29.93 in    
Wind  
Wind Speed 6 mph ()    
Max Wind Speed 12 mph    
Max Gust Speed -    
Visibility 6.0 miles    
Events      
Averages and records for this station are not official NWS values.
T = Trace of Precipitation, MM = Missing Value Source: Averaged Metar Reports

Daily Weather History Graph

Daily Weather History Graph

Search for Another Location

Airport or City:

Trip Planner

Search our weather history database for the weather conditions in past years. The results will help you decide how hot, cold, wet, or windy it might be!

Date:

Astronomy

Oct. 07, 2012 Rise Set
Actual Time 5:43 AM EET 5:29 PM EET
Civil Twilight 5:20 AM EET 5:52 PM EET
Nautical Twilight 4:54 AM EET 6:18 PM EET
Astronomical Twilight 4:27 AM EET 6:45 PM EET
Moon 10:47 PM EET (10/7) 11:39 AM EET (10/7)
Length of Visible Light 12h 32m
Length of Day
11h 46m
Waning Gibbous, 58% of the Moon is Illuminated
Oct 7
Waning Gibbous
Oct 8
Last Quarter
Oct 15
New
Oct 22
First Quarter
Oct 29
Full

Hourly Weather History & Observations

Time (EET) Temp. Dew Point Humidity Pressure Visibility Wind Dir Wind Speed Gust Speed Precip Events Conditions
12:00 AM 78.8 °F 44.6 °F 30% 29.95 in - North 5.8 mph - N/A   Clear
1:00 AM 78.8 °F 46.4 °F 32% 29.95 in - NNE 4.6 mph - N/A   Clear
2:00 AM 77 °F 46 °F 22% 29.91 in 6 mi North 6.9 mph - -  
2:00 AM 77.0 °F 46.4 °F 34% 29.92 in - North 6.9 mph - N/A   Clear
3:00 AM 77.0 °F 46.4 °F 34% 29.92 in - North 5.8 mph - N/A   Clear
4:00 AM 75.2 °F 46.4 °F 36% 29.92 in - North 5.8 mph - N/A   Clear
5:00 AM 75.2 °F 46.4 °F 36% 29.95 in - North 5.8 mph - N/A   Clear
6:00 AM 73.4 °F 46.4 °F 38% 29.95 in - North 5.8 mph - N/A   Clear
7:00 AM 75.2 °F 46.4 °F 36% 29.98 in - North 6.9 mph - N/A   Clear
8:00 AM 78 °F 49 °F 25% 29.96 in 6 mi North 9.2 mph - -  
8:00 AM 78.8 °F 48.2 °F 34% 29.98 in - North 9.2 mph - N/A   Clear
9:00 AM 84.2 °F 50.0 °F 30% 29.98 in - North 11.5 mph - N/A   Clear
11:00 AM 89.6 °F 50.0 °F 26% 29.98 in - North 11.5 mph - N/A   Clear
12:00 PM 91.4 °F 48.2 °F 23% 29.95 in - North 9.2 mph - N/A   Clear
1:00 PM 93.2 °F 46.4 °F 20% 29.92 in - North 9.2 mph - N/A   Clear
2:00 PM 94 °F 46 °F 11% 29.86 in 6 mi North 9.2 mph - -  
2:00 PM 95.0 °F 46.4 °F 19% 29.89 in - North 9.2 mph - N/A   Clear
3:00 PM 95.0 °F 46.4 °F 19% 29.89 in - North 9.2 mph - N/A   Clear
4:00 PM 93.2 °F 44.6 °F 19% 29.89 in - North 9.2 mph - N/A   Clear
5:00 PM 91.4 °F 46.4 °F 21% 29.89 in - North 9.2 mph - N/A   Clear
6:00 PM 89.6 °F 44.6 °F 21% 29.92 in - North 8.1 mph - N/A   Clear
7:00 PM 87.8 °F 42.8 °F 21% 29.92 in - North 4.6 mph - N/A   Clear
8:00 PM 85 °F 45 °F 15% 29.91 in 6 mi North 4.6 mph - -  
8:00 PM 84.2 °F 44.6 °F 25% 29.92 in - North 4.6 mph - N/A   Clear
9:00 PM 82.4 °F 46.4 °F 28% 29.95 in - NNE 4.6 mph - N/A   Clear
10:00 PM 80.6 °F 46.4 °F 30% 29.95 in - NNE 4.6 mph - N/A   Clear
11:00 PM 78.8 °F 48.2 °F 34% 29.95 in - North 6.9 mph - N/A   Clear